sat.trackr.live / text

‹ back to catalog

KUIPER-00600

NORAD 69284 · 2026-118T

PAYLOAD ACTIVE UNKNOWN

§ Identity

Operator
Country
US
Launch date
2026-05-29
Launch site
AFETR
Launch vehicle
Mass (kg)
RCS (m²)

External: N2YO · Heavens-Above · Gunter

§ Orbital elements

Epoch: 2026-09-19T16:18:49.744224Z

Period
97.30 min
Inclination
51.9022°
Eccentricity
0.0001785
Mean motion
14.79948156 rev/d
Perigee alt
628.2 km
Apogee alt
630.7 km
Semi-major
7,007.6 km
B*
-3.6381e-4
RAAN
327.7399°
Arg perigee
49.0645°
Mean anomaly
311.0472°
Rev number
1,836

§ Raw data

KUIPER-006001 69284U 26118T   26262.67974241 -.00002995  00000+0 -36381-3 0  99952 69284  51.9022 327.7399 0001785  49.0645 311.0472 14.79948156 18369

JSON: /api/v1/satellites/69284 · /tle

For live sub-satellite position, see the globe view (requires WebGL).

§ Visibility from observer

Set your observer location to see the next 7 days of passes ≥ 10°. The values pass through the URL so the page stays shareable.

No JS? Fill the form by hand. The geolocation button needs JavaScript.